[ hide orbit diagram ]
For accurate long-term ephemerides, please instead use our Horizons system.This orbit viewer was implemented using two-body methods, and hence should not be used for determining accurate long-term trajectories (over several years or decades) or planetary encounter circumstances.
Orbital Elements at Epoch 2459200.5 (2020-Dec-17.0) TDB
Reference: JPL 22 (heliocentric ecliptic J2000)
Element | Value | Uncertainty (1-sigma) | Units |
e | .1790844104699861 | 4.7744e-08 | |
a | 2.38256997668008 | 8.6528e-09 | au |
q | 1.955888837002839 | 1.1152e-07 | au |
i | 1.76963428952076 | 5.2604e-06 | deg |
node | 180.0492928383827 | 0.00011522 | deg |
peri | 167.1112838677423 | 0.00011575 | deg |
M | 151.6982804748037 | 1.0945e-05 | deg |
tp | 2458634.462660040453 (2019-May-30.96266004) | 3.9908e-05 | TDB |
period | 1343.28116144522 3.68 | 7.3176e-06 2.003e-08 | d yr |
n | .2680004829463107 | 1.46e-09 | deg/d |
Q | 2.80925111635732 | 1.0202e-08 | au |
|
| | Orbit Determination Parameters
Additional Information
|
[ show covariance matrix ]
Physical Parameter Table
Parameter |
Symbol |
Value |
Units |
Sigma |
Reference |
Notes |
absolute magnitude |
H |
16.49 |
|
n/a |
E2021B10 |
|
|
58346 (1995 CV4) Discovered 1995-Feb-01 by Spacewatch at Kitt Peak |
Reference: 20030614/Numbers.arc | Last Updated: 2004-04-19 |
|
Alternate Designations
1995 CV4 = 1993 RH8 = 1999 EZ12 |
|
|